Regional Weather Roundup
Issued by NWS

Home | Current Version | Previous Version | Text Only | Print | Product List | Glossary Off
Versions: 1 2 3 4 5 6 7 8 9 10 11 12 13 14 15 16 17 18 19 20 21 22 23 24 25 26 27 28 29 30 31 32 33 34 35 36 37 38 39 40 41 42 43 44 45 46 47 48 49 50

000
ASUS43 KIND 052259
RWRIN

WEATHER ROUNDUP FOR INDIANA
NATIONAL WEATHER SERVICE INDIANAPOLIS IN
700 PM EDT TUE MAY 05 2015

NOTE: "FAIR" INDICATES FEW OR NO CLOUDS BELOW 12,000 FEET WITH NO
SIGNIFICANT WEATHER AND/OR OBSTRUCTIONS TO VISIBILITY.

* - STATION DOES NOT REPORT WEATHER SUCH AS PRECIPITATION OR FOG.

+ - STATION NOT QUALITY CONTROLLED BY THE NATIONAL WEATHER SERVICE.
    USE DATA WITH CAUTION...ESPECIALLY DEWPOINT AND RELATIVE
    HUMIDITY OBSERVATIONS.

INZ001>003-010>013-019-020-060000-
NORTHWEST INDIANA

CITY           SKY/WX    TMP DP  RH WIND       PRES   REMARKS
GARY /AIRPORT/ CLOUDY    52 N/A N/A N8        30.20R FOG

$$

LMZ046-743>745-060000-
SOUTHERN LAKE MICHIGAN

STATION/POSITION TIME  TEMP    WIND        PRES    WAVE
                       AIR SEA DIR/SP/G            HT
                 (UTC) (F)     (DEG/KT/KT) (MB)    (FT)
BURNS HARBOR     2200   52      60/  6/  7 1022.7R
MICHIGAN CITY    2200   53      20/ 13/ 14   N/A
5NW MICH CITY    2200   52 50   60/ 10/ 12   N/A     2

$$

INZ004-005-014>016-021>024-060000-
NORTH CENTRAL INDIANA

CITY           SKY/WX    TMP DP  RH WIND       PRES   REMARKS
ELKHART        CLOUDY    55  54  94 E9        30.21S FOG
GOSHEN         TSTM      58  55  90 NE13      30.19S FOG
SOUTH BEND     CLOUDY    59  55  87 E5        30.21R

$$

INZ006>009-017-018-025>027-060000-
NORTHEAST INDIANA

CITY           SKY/WX    TMP DP  RH WIND       PRES   REMARKS
ANGOLA *+      CLOUDY    55  45  67 E8        30.21S
FORT WAYNE     PTSUNNY   65  60  84 NE12      30.17F

$$

INZ028-029-035-036-043>045-051>053-060000-
WEST CENTRAL INDIANA

CITY           SKY/WX    TMP DP  RH WIND       PRES   REMARKS
GREENCASTLE +  MOSUNNY   79  46  31 S9        30.15S
LAFAYETTE      PTSUNNY   78  51  38 S5        30.11S
TERRE HAUTE    MOSUNNY   82  55  39 S13       30.13S

$$

INZ030>032-037>040-046>048-054>057-064-065-060000-
CENTRAL INDIANA

CITY           SKY/WX    TMP DP  RH WIND       PRES   REMARKS
COLUMBUS       MOSUNNY   77  50  38 W7        30.16S
GREENWOOD *+   MOSUNNY   82  48  30 SW8       30.16S
INDIANAPOLIS   MOSUNNY   79  53  40 SW13      30.14S
-EAGLE CREEK   MOSUNNY   80  50  34 SW7       30.14S
KOKOMO *+      MOSUNNY   81  54  39 SW10      30.13S
MT COMFORT *+  SUNNY     82  32  16 SW13      30.16S
SHELBYVILLE    MOSUNNY   83  54  36 SW9       30.16R

$$

INZ033-034-041-042-049-050-058-059-060000-
EAST CENTRAL INDIANA

CITY           SKY/WX    TMP DP  RH WIND       PRES   REMARKS
MUNCIE         MOSUNNY   80  53  39 SW6       30.16R

$$

INZ060-061-067>069-081>083-085>088-060000-
SOUTHWEST INDIANA

CITY           SKY/WX    TMP DP  RH WIND       PRES   REMARKS
EVANSVILLE     SUNNY     83  51  33 S7        30.15S
HUNTINGBURG *+ SUNNY     82  52  34 S9        30.16S

$$

INZ062-063-066-070>080-084-089>092-060000-
SOUTH CENTRAL AND SOUTHEAST INDIANA

CITY           SKY/WX    TMP DP  RH WIND       PRES   REMARKS
BLOOMINGTON    MOSUNNY   83  50  31 SW10      30.15F
MADISON *+     SUNNY     79  50  36 CALM      30.19F
SEYMOUR +      SUNNY     82  54  36 S9        30.15F

$$



USA.gov is the U.S. government's official web portal to all federal, state and local government web resources and services.